#timestamp,LO_Frequency,Hit,StdDev 
1661684415.1,286047000.3,N
1661684416.0,286047000.3,N
1661684435.8,286047002.8,N
1661684455.6,286047000.4,N
1661684475.5,286046999.9,N
1661684495.3,286047000.0,N
1661684515.1,286047002.8,N
1661684535.9,286046999.9,N
1661684555.7,286047002.8,N
1661684575.6,286047000.1,N
1661684595.4,286046998.9,N
1661684615.2,286046996.6,N
1661684635.1,286046997.1,N
1661684636.0,286046997.1,N
1661684655.8,286046996.6,N
1661684675.7,286046997.3,N
1661684695.5,286046999.0,N
1661684715.3,286046998.1,N
1661684735.2,286047000.9,N
1661684755.9,286046999.1,N
1661684775.7,286046997.4,N
1661684795.6,286046997.0,N
1661684815.4,286046997.0,N
1661684835.3,286046999.1,N
1661684855.1,286046999.2,N
1661684856.0,286046999.2,N
1661684875.8,286046999.4,N
1661684895.7,286046998.3,N
1661684915.5,286046999.0,N
1661684935.3,286046998.5,N
1661684955.2,286046998.2,N
1661684975.0,286046999.0,N
1661684975.9,286046999.0,N
1661684995.8,286046998.2,N
1661685015.6,286047001.0,N
1661685035.4,286047000.3,N
1661685055.3,286047000.6,N
1661685075.1,286047000.8,N
1661685095.8,286047000.2,N
1661685115.7,286047000.6,N
1661685135.5,286047000.1,N
1661685155.4,286047000.1,N
1661685175.2,286047000.5,N
1661685195.0,286047001.1,N
1661685195.9,286047001.1,N
1661685215.8,286047000.3,N
1661685235.6,286047000.7,N
1661685255.5,286047000.4,N
1661685275.3,286047000.2,N
1661685295.1,286047000.2,N
1661685315.9,286047000.0,N
1661685335.7,286047000.0,N
1661685355.5,286047000.2,N
1661685375.4,286047000.6,N
1661685395.2,286047000.9,N
1661685415.1,286047000.6,N
1661685416.0,286047000.6,N
1661685435.8,286047000.9,N
1661685455.6,286047000.4,N
1661685475.5,286047000.9,N
1661685495.3,286047000.4,N
1661685515.1,286047000.2,N
1661685535.9,286047000.4,N
1661685555.7,286046998.2,Y
1661685575.6,286046999.4,P
1661685595.4,286046996.9,P
1661685615.2,286046997.8,N
1661685635.1,286046997.5,N
1661685636.0,286046997.5,N
1661685655.8,286046996.7,N
1661685675.7,286046998.3,N
1661685695.5,286046998.2,N
1661685715.3,286046998.5,N
1661685735.2,286047000.8,N
1661685755.0,286047001.2,N
1661685755.9,286047001.2,N
1661685775.8,286047001.1,N
1661685795.6,286047000.5,N
1661685815.4,286046998.2,N
1661685835.3,286047000.5,N
1661685855.1,286046998.1,N
1661685875.8,286047000.4,N
1661685895.7,286047001.2,N
1661685915.5,286046996.9,N
1661685935.4,286046996.5,N
1661685955.2,286046997.2,N
1661685975.0,286046997.5,N
1661685975.9,286046997.5,N
1661685995.8,286046997.6,N
1661686015.6,286046995.0,Y
1661686035.5,286046997.8,P
1661686055.3,286046997.7,P
1661686075.1,286046997.2,P
1661686095.9,286046998.9,N
1661686115.7,286046998.4,N
1661686135.5,286046998.1,Y
1661686155.4,286047002.7,P
1661686175.2,286047002.3,N
1661686195.1,286047002.3,N
1661686196.0,286047002.3,N
1661686215.8,286047002.6,N
1661686235.6,286047002.5,N
1661686255.5,286047002.1,N
1661686275.3,286047002.5,N
1661686295.1,286047001.6,N
1661686315.9,286047002.7,N
1661686335.7,286047000.0,N
1661686355.6,286046998.1,N
1661686375.4,286047001.2,N
1661686395.2,286047000.6,N
1661686415.1,286047001.1,N
1661686416.0,286047001.1,N
1661686435.8,286046998.5,N
1661686455.6,286046998.4,N
1661686475.5,286046998.2,N
1661686495.3,286047000.2,N
1661686515.2,286047002.3,N
1661686535.9,286047000.1,N
1661686555.7,286047000.8,N
1661686575.6,286047000.4,N
1661686595.4,286046999.4,N
1661686615.2,286047000.8,N
1661686635.1,286046998.8,N
1661686636.0,286046998.8,N
1661686655.8,286046998.5,N
1661686675.7,286046999.5,N
1661686695.5,286046997.7,N
1661686715.3,286046997.2,N
1661686735.2,286046997.1,N
1661686755.0,286046996.9,N
1661686755.9,286046996.9,N
1661686775.7,286046997.3,N
1661686795.6,286046997.7,N
1661686815.4,286046997.0,N
1661686835.3,286046999.6,N
1661686855.1,286046999.4,N
1661686856.0,286046999.4,N
1661686875.8,286046999.6,N
1661686895.7,286046996.9,N
1661686915.5,286046996.7,N
1661686935.3,286046996.8,N
1661686955.2,286046997.3,N
1661686975.0,286046995.0,Y
1661686975.9,286046995.0,P
1661686995.8,286046998.8,N
1661687015.6,286046998.7,N
1661687035.4,286046999.4,N
1661687055.3,286046999.1,N
1661687075.1,286046998.8,N
1661687095.9,286046999.5,N
1661687115.7,286046998.3,N
1661687135.5,286046998.8,N
1661687155.4,286046998.4,N
1661687175.2,286046999.0,N
1661687195.0,286046999.3,N
1661687195.9,286046999.3,N
1661687215.8,286046998.8,N
1661687235.6,286046999.3,N
1661687255.5,286046999.3,N
1661687275.3,286046996.8,Y
1661687295.1,286046999.4,P
1661687315.9,286046996.6,P
1661687335.7,286046999.5,N
1661687355.6,286047001.1,N
1661687375.4,286046998.7,N
1661687395.2,286046996.6,N
1661687415.1,286047001.1,N
1661687416.0,286047001.1,N
1661687435.8,286046998.7,N
1661687455.6,286046998.2,N
1661687475.5,286046998.2,N
1661687495.3,286047000.7,N
1661687515.2,286047000.4,N
1661687535.9,286047000.9,N
1661687555.7,286046998.4,N
1661687575.6,286047000.8,N
1661687595.4,286046998.4,N
1661687615.2,286046998.2,N
1661687635.1,286046999.1,N
1661687636.0,286046999.1,N
1661687655.8,286046998.9,N
1661687675.7,286046999.6,N
1661687695.5,286046998.8,N
1661687715.3,286046998.6,N
1661687735.2,286046999.2,N
1661687755.0,286046996.5,N
1661687755.9,286046996.5,N
1661687775.7,286046999.2,N
1661687795.6,286046999.3,N
1661687815.4,286046999.4,N
1661687835.3,286046999.5,N
1661687855.1,286046996.8,N
1661687875.8,286046997.0,N
1661687895.7,286046997.1,N
1661687915.5,286046997.2,N
1661687935.4,286046999.2,N
1661687955.2,286046996.6,N
1661687975.0,286046997.3,N
1661687975.9,286046997.3,N
1661687995.8,286046995.4,Y
